Home   Weather   Cruzeiro do Sul   Past weeks

Flag for Brazil Past Weather in Cruzeiro do Sul, Acre, Brazil — Yesterday and Last 2 Weeks

Now
72 °F

Clear.


Feels Like: 65 °F
Forecast: 71 / 88 °F
Wind: No wind

Location: Cruzeiro Do Sul Airport

Current Time: Sep 26, 2016 at 2:16:32 AM

Latest Report: Sep 26, 2016 at 1:45 AM


Visibility: 10 mi

Pressure: 29.92 "Hg

Humidity: 100%

Dew Point: 72 °F

Location of Cruzeiro do SulLocation

Past Weather in Cruzeiro do Sul — Graph

°F

Cruzeiro do Sul Temperature Yesterday

Maximum temperature yesterday: 90 °F (at 4:00 PM)
Minimum temperature yesterday: 73 °F (at 12:00 AM)
Average temperature yesterday: 81 °F

High & Low Weather Summary for the Past Weeks

 TemperatureHumidityPressure
High95 °F (Sep 13, 1:00 PM)100% (Sep 18, 5:00 PM)30.09 "Hg (Sep 18, 5:00 PM)
Low45 °F (Sep 18, 5:00 PM)39% (Sep 17, 2:00 PM)29.74 "Hg (Sep 14, 4:00 PM)
Average81 °F77%29.91 "Hg
* Reported Sep 11 1:45 AM — Sep 26 1:00 AM, Cruzeiro do Sul, Weather by CustomWeather, © 2016

Note: Actual official high and low records may vary slightly from our data, if they occured in-between our weather recording intervals... More about our weather records

Advertising

Cruzeiro do Sul Weather History for the Previous 24 Hours

Scroll right to see more
 ConditionsComfort  
Time TempWeatherWind HumidityBarometerVisibility
1:00 AM
Mon, Sep 26
73 °FClear.No wind94%29.92 "Hg10 mi
12:00 AM73 °FClear.No wind94%29.95 "Hg10 mi
11:00 PM
Sun, Sep 25
75 °FClear.No wind89%29.95 "Hg10 mi
10:00 PM75 °FPassing clouds.No wind94%29.95 "HgN/A
9:00 PM77 °FPassing clouds.No wind83%29.92 "HgN/A
8:00 PM77 °FClear.No wind89%29.89 "Hg10 mi
7:00 PM81 °FPassing clouds.No wind79%29.89 "HgN/A
6:00 PM84 °FPassing clouds.No wind66%29.86 "HgN/A
5:00 PM88 °FBroken clouds.No wind52%29.86 "HgN/A
4:00 PM90 °FBroken clouds.No wind49%29.83 "HgN/A
3:00 PM88 °FBroken clouds.No wind55%29.86 "HgN/A
2:00 PM88 °FBroken clouds.No wind55%29.89 "HgN/A
1:00 PM88 °FBroken clouds.No wind59%29.95 "HgN/A
12:00 PM81 °FPartly sunny.3 mph74%29.98 "HgN/A
11:00 AM86 °FPartly sunny.7 mph62%30.01 "HgN/A
10:00 AM81 °FPartly sunny.6 mph79%30.04 "HgN/A
9:00 AM79 °FPartly sunny.6 mph79%30.04 "HgN/A
8:00 AM73 °FLow clouds.2 mph94%30.04 "Hg4 mi
Weather by CustomWeather, © 2016

See weather overviewHow to use our weather pages